This is the latest recevied weather packets stored in our database for station/object IK1QAD-3. If no packets are shown the sender has not sent any weather packets the latest 10 day(s).
| Time | Temp. | Humidity | Pressure | Rain* | Wind** | Luminosity | Snow |
|---|---|---|---|---|---|---|---|
| 1777943021 | 16.11° C | 96% | 1012.9 hPa | 29.97 mm | - | - | - |
| 1777942717 | 16.11° C | 96% | 1013.1 hPa | 32 mm | - | - | - |
| 1777942414 | 16.11° C | 96% | 1013.3 hPa | 33.02 mm | - | - | - |
| 1777942107 | 16.11° C | 96% | 1013.5 hPa | 33.02 mm | - | - | - |
| 1777941823 | 16.11° C | 96% | 1013.5 hPa | 33.02 mm | - | - | - |
| 1777941517 | 16.11° C | 96% | 1013.6 hPa | 33.02 mm | - | - | - |
| 1777941217 | 16.11° C | 96% | 1013.7 hPa | 33.02 mm | - | - | - |
| 1777940914 | 15.56° C | 96% | 1013.7 hPa | 33.02 mm | - | - | - |
| 1777940610 | 15.56° C | 96% | 1013.7 hPa | 39.12 mm | - | - | - |
| 1777940307 | 15.56° C | 96% | 1013.7 hPa | 37.08 mm | - | - | - |
| 1777940023 | 15.56° C | 96% | 1013.8 hPa | 39.88 mm | - | - | - |
| 1777939721 | 15.56° C | 97% | 1013.8 hPa | 39.88 mm | - | - | - |
| 1777939419 | 15° C | 95% | 1014 hPa | 41.91 mm | - | - | - |
| 1777939112 | 15.56° C | 95% | 1014 hPa | 43.94 mm | - | - | - |
| 1777938809 | 16.11° C | 95% | 1014 hPa | 44.96 mm | - | - | - |
| 1777938521 | 16.11° C | 95% | 1014.1 hPa | 48.01 mm | - | - | - |
| 1777938221 | 16.11° C | 95% | 1014.2 hPa | 55.88 mm | - | - | - |
| 1777937921 | 16.11° C | 95% | 1014.2 hPa | 59.94 mm | - | - | - |
| 1777937615 | 16.11° C | 95% | 1014.3 hPa | 60.96 mm | - | - | - |
| 1777937311 | 16.11° C | 95% | 1014.4 hPa | 62.99 mm | - | - | - |
| 1777937005 | 15.56° C | 95% | 1014.4 hPa | 58.93 mm | - | - | - |
| 1777936723 | 15° C | 94% | 1014.6 hPa | 59.94 mm | - | - | - |
| 1777936422 | 15° C | 93% | 1014.5 hPa | 56.9 mm | - | - | - |
| 1777936117 | 15° C | 93% | 1014.6 hPa | 54.1 mm | - | - | - |
| 1777935815 | 15° C | 93% | 1014.7 hPa | 45.97 mm | - | - | - |
* Rain latest hour (hover to see other rain measurements)
** Current wind speed in m/s (hover to see current wind gust speed)